This is the latest recevied weather packets stored in our database for station/object VE2JJ-13. If no packets are shown the sender has not sent any weather packets the latest 10 day(s).
| Time | Temp. | Humidity | Pressure | Rain* | Wind** | Luminosity | Snow |
|---|---|---|---|---|---|---|---|
| 1777747012 | 9.44° C | 72% | 1004.2 hPa | 0 mm | - | - | - |
| 1777746348 | 9.44° C | 68% | 1004 hPa | 0 mm | - | - | - |
| 1777746019 | 9.44° C | 69% | 1004 hPa | 0 mm | - | - | - |
| 1777745689 | 9.44° C | 69% | 1004 hPa | 0 mm | - | - | - |
| 1777745358 | 10° C | 67% | 1004 hPa | 0 mm | - | - | - |
| 1777743529 | 10° C | 69% | 1004.2 hPa | 0 mm | - | - | - |
| 1777742666 | 9.44° C | 70% | 1004.3 hPa | 0 mm | - | - | - |
| 1777741007 | 9.44° C | 69% | 1004.6 hPa | 0 mm | - | - | - |
| 1777739778 | 10° C | 73% | 1004.7 hPa | 0 mm | - | - | - |
| 1777739448 | 9.44° C | 71% | 1004.7 hPa | 0 mm | - | - | - |
| 1777739153 | 8.89° C | 74% | 1004.9 hPa | 0 mm | - | - | - |
| 1777738849 | 8.89° C | 74% | 1004.9 hPa | 0 mm | - | - | - |
| 1777738518 | 8.89° C | 77% | 1004.9 hPa | 0 mm | - | - | - |
| 1777738192 | 8.33° C | 77% | 1004.9 hPa | 0 mm | - | - | - |
| 1777737859 | 8.33° C | 76% | 1005 hPa | 0 mm | - | - | - |
| 1777737557 | 8.33° C | 75% | 1005 hPa | 0 mm | - | - | - |
| 1777736957 | 8.89° C | 76% | 1005.1 hPa | 0 mm | - | - | - |
| 1777736629 | 8.33° C | 76% | 1005.1 hPa | 0 mm | - | - | - |
| 1777736330 | 8.33° C | 76% | 1005.3 hPa | 0 mm | - | - | - |
| 1777736031 | 8.33° C | 74% | 1005.3 hPa | 0 mm | - | - | - |
| 1777736000 | 8.33° C | 74% | 1005.3 hPa | 0 mm | - | - | - |
| 1777735697 | 8.33° C | 77% | 1005.4 hPa | 0 mm | - | - | - |
| 1777735397 | 7.78° C | 80% | 1005.4 hPa | 0 mm | - | - | - |
| 1777735097 | 7.22° C | 79% | 1005.4 hPa | 0 mm | - | - | - |
| 1777734767 | 7.22° C | 81% | 1005.5 hPa | 0.25 mm | - | - | - |
* Rain latest hour (hover to see other rain measurements)
** Current wind speed in m/s (hover to see current wind gust speed)